RELEVES METEO NEUVILLE
Donnes mto: Actuelle jeudi, 28/10/2021 16:45
Date Horaire Temp. E. Hum. E. P.atmo. Pluie Vent Direction Direction P. de rose Temp au vent Rafales
28/10/2021 16:45 16,6 C 71 % 1011,1 hPa 0,0 mm 3,6 km/h (1 Bft) S-SO 192 11,3 C 16,6 C 17,7 km/h (3 Bft)
28/10/2021 16:40 16,6 C 71 % 1011,2 hPa 0,0 mm 7,5 km/h (2 Bft) S 180 11,3 C 16,0 C 20,9 km/h (4 Bft)
28/10/2021 16:35 16,7 C 71 % 1011,2 hPa 0,0 mm 5,3 km/h (1 Bft) SO 223 11,4 C 16,7 C 19,3 km/h (3 Bft)
28/10/2021 16:30 16,8 C 72 % 1011,3 hPa 0,0 mm 2,0 km/h (1 Bft) S-SO 194 11,7 C 16,8 C 12,9 km/h (3 Bft)
28/10/2021 16:25 16,7 C 71 % 1011,2 hPa 0,0 mm 2,6 km/h (1 Bft) S-SO 207 11,4 C 16,7 C 16,1 km/h (3 Bft)
28/10/2021 16:20 16,7 C 71 % 1011,4 hPa 0,0 mm 3,1 km/h (1 Bft) S-SO 211 11,4 C 16,7 C 16,1 km/h (3 Bft)
28/10/2021 16:15 16,7 C 71 % 1011,4 hPa 0,0 mm 4,0 km/h (1 Bft) SO 215 11,4 C 16,7 C 12,9 km/h (3 Bft)
28/10/2021 16:10 16,7 C 71 % 1011,4 hPa 0,0 mm 5,0 km/h (1 Bft) S 170 11,4 C 16,7 C 16,1 km/h (3 Bft)
28/10/2021 16:05 16,7 C 71 % 1011,5 hPa 0,0 mm 6,5 km/h (2 Bft) S-SO 205 11,4 C 16,7 C 20,9 km/h (4 Bft)
28/10/2021 16:00 16,7 C 70 % 1011,6 hPa 0,0 mm 6,0 km/h (2 Bft) SO 225 11,2 C 16,7 C 17,7 km/h (3 Bft)
28/10/2021 15:55 16,8 C 70 % 1011,6 hPa 0,0 mm 5,9 km/h (2 Bft) S-SO 196 11,3 C 16,8 C 17,7 km/h (3 Bft)
28/10/2021 15:50 16,8 C 70 % 1011,7 hPa 0,0 mm 2,7 km/h (1 Bft) S-SO 198 11,3 C 16,8 C 14,5 km/h (3 Bft)
28/10/2021 15:45 16,8 C 70 % 1011,8 hPa 0,0 mm 2,9 km/h (1 Bft) S 190 11,3 C 16,8 C 14,5 km/h (3 Bft)
28/10/2021 15:40 16,8 C 70 % 1011,8 hPa 0,0 mm 2,8 km/h (1 Bft) S 182 11,3 C 16,8 C 16,1 km/h (3 Bft)
28/10/2021 15:35 16,9 C 70 % 1011,8 hPa 0,0 mm 5,1 km/h (1 Bft) S-SO 204 11,4 C 16,9 C 12,9 km/h (3 Bft)
28/10/2021 15:30 16,9 C 71 % 1011,8 hPa 0,0 mm 1,7 km/h (1 Bft) S 182 11,6 C 16,9 C 11,3 km/h (2 Bft)
28/10/2021 15:25 16,8 C 71 % 1012,0 hPa 0,0 mm 4,0 km/h (1 Bft) S-SO 200 11,5 C 16,8 C 12,9 km/h (3 Bft)
28/10/2021 15:20 16,7 C 72 % 1012,1 hPa 0,0 mm 4,3 km/h (1 Bft) S-SE 164 11,6 C 16,7 C 16,1 km/h (3 Bft)
28/10/2021 15:15 16,6 C 72 % 1012,1 hPa 0,0 mm 4,4 km/h (1 Bft) S 171 11,5 C 16,6 C 11,3 km/h (2 Bft)
28/10/2021 15:10 16,6 C 72 % 1012,2 hPa 0,0 mm 6,1 km/h (2 Bft) S-SE 159 11,5 C 16,6 C 22,5 km/h (4 Bft)
28/10/2021 15:05 16,5 C 72 % 1012,2 hPa 0,0 mm 4,6 km/h (1 Bft) S 191 11,4 C 16,5 C 14,5 km/h (3 Bft)
_ Min-Heure 09:05 15:35 16:45 - 00:10 - - 09:05 09:05 00:15
Minimum _ 8,0 C 70 % 1011,1 hPa - 0,0 km/h (0 Bft) - - 7,2 C 8,0 C 0,0 km/h (0 Bft)
_ Max-Heure 15:30 03:50 00:00 07:10 16:40 - - 14:05 15:30 15:10
Maximum _ 16,9 C 96 % 1019,9 hPa 0,2 mm 7,5 km/h
S (2 Bft)
- - 11,8 C 16,9 C 22,5 km/h
S-SO (4 Bft)
Moyenne _ 11,0 C 89 % 1015,9 hPa #0,2 mm 1,7 km/h (1 Bft) S-SO - 9,3 C 11,0 C 7,9 km/h (2 Bft)
NEUVILLE ST REMY